193P/LINEAR-NEAT (2021)

Japanese version
Home page
Updated on November 3, 2020

---------------------------------------------------------------------

* Profile

* Orbital Elements

Epoch 2021 Aug. 14.0 TT = JDT 2459440.5
T 2021 Aug. 25.28882 TT                                 MPCW
q   2.1680490            (2000.0)            P               Q
n   0.14553967     Peri.    8.10963     +0.95671699     +0.28040851
a   3.5794403      Node   335.17485     -0.27633168     +0.79137267
e   0.3943050      Incl.   10.68852     -0.09128752     +0.54323141
P   6.77
From 330 observations 2001 Aug. 17-2014 Dec. 1, mean residual 0".7.
     Nongravitational parameters A1 = +1.62, A2 = -0.1622.

* Finding Charts

* Magnitudes Graph

        m1 = 8.5 + 5 log d + 20.0 log r(t - 80)

---------------------------------------------------------------------

The orbital elements are published on M.P.E.C. 2015-A10.
The charts are made with StellaNavigator Ver.10 (AstroArts).
The magnitudes graphs are made with Comet for Windows.

---------------------------------------------------------------------

Copyright(C) Seiichi Yoshida (comet@aerith.net). All rights reserved.